📊 Raw Sensor Data

Showing records 44651 to 44675 of 85,039 total

ID Distance (ft) Battery V Battery A Int Temp (°F) Int Humid (%) Ext Temp (°F) Solar V RSSI SNR Time Stamp
40401 16.1 3.96 0 78 43 71 5.10 -73 7 05/12/2025 04:00 PM
40400 16.1 3.96 0 78 43 70 5.10 -72 8 05/12/2025 03:45 PM
40399 16.2 3.96 0 78 42 70 5.10 -72 8 05/12/2025 03:30 PM
40398 16.1 3.96 0 78 41 69 5.10 -71 8 05/12/2025 03:15 PM
40397 16.2 3.96 0 78 41 69 5.10 -72 8 05/12/2025 03:00 PM
40396 16.2 4.13 0 78 41 72 5.10 -75 8 05/12/2025 02:45 PM
40395 16.1 4.11 0 75 42 71 5.10 -74 8 05/12/2025 02:30 PM
40394 16.2 3.99 0 74 42 69 5.10 -76 7 05/12/2025 02:15 PM
40393 16.2 3.96 0 76 40 68 5.10 -75 8 05/12/2025 02:00 PM
40392 16.1 3.96 0 72 43 70 5.10 -73 8 05/12/2025 01:30 PM
40391 16.1 3.96 0 70 44 64 5.10 -78 7 05/12/2025 01:15 PM
40390 16.1 3.96 0 72 43 68 5.10 -76 8 05/12/2025 01:00 PM
40389 16.2 3.96 0 75 41 65 5.10 -74 8 05/12/2025 12:45 PM
40388 16.4 3.96 0 73 41 68 5.10 -75 8 05/12/2025 12:30 PM
40387 16.2 3.96 0 72 41 67 5.10 -74 8 05/12/2025 12:15 PM
40386 16.2 4.11 0 70 41 67 5.10 -76 7 05/12/2025 12:00 PM
40385 16.2 4.11 0 69 41 69 5.10 -75 8 05/12/2025 11:45 AM
40384 16.2 3.96 0 69 40 68 5.10 -76 8 05/12/2025 11:30 AM
40383 16.1 3.96 0 64 43 65 5.10 -76 8 05/12/2025 11:15 AM
40382 16.1 3.96 0 66 42 63 5.10 -78 8 05/12/2025 11:00 AM
40381 16.1 4.12 0 65 42 63 5.10 -89 7 05/12/2025 10:45 AM
40380 16.1 3.96 0 64 41 63 5.10 -83 7 05/12/2025 10:30 AM
40379 16.1 3.96 0 64 40 62 5.10 -83 8 05/12/2025 10:15 AM
40378 16.2 3.96 0 64 40 66 5.10 -80 7 05/12/2025 10:00 AM
40377 16.2 3.96 0 62 39 67 5.10 -80 8 05/12/2025 09:45 AM